SAS7302 LGSA-ENAL

Flight info

Callsign SAS7302
Flight time N/A
Altitude 32000
Route SOKRI UY151 DDM/N0447F330 DCT KUGGI/N0451F340 DCT TALAS DCT LONTA UM749 UDVAR DCT PARAK DCT BILNA DCT XIDNA DCT POKEN/N0446F360 DCT OBITI
Aircraft A320/M-SDE3FGHIRWY/LB1

Departure

Time 2026-04-30 18:22
Airport Chania International Airport (LGSA)

Arrival

Time N/A
Airport Ålesund Airport (ENAL)
Time Latitude Longitude Altitude Speed Heading
2026-04-30 18:15 35.53839 24.13895 491 ft 0 kts 21°
2026-04-30 18:17 35.53844 24.13891 489 ft 2 kts 322°
2026-04-30 18:18 35.53842 24.13859 493 ft 8 kts 257°
2026-04-30 18:18 35.53798 24.13815 496 ft 10 kts 206°
2026-04-30 18:18 35.53752 24.13751 496 ft 11 kts 289°
2026-04-30 18:18 35.53783 24.13659 492 ft 12 kts 295°
2026-04-30 18:19 35.53817 24.13553 495 ft 14 kts 291°
2026-04-30 18:19 35.53765 24.13480 496 ft 14 kts 201°
2026-04-30 18:19 35.53671 24.13454 493 ft 14 kts 154°
2026-04-30 18:19 35.53639 24.13533 499 ft 0 kts 111°
2026-04-30 18:21 35.53594 24.13672 502 ft 51 kts 112°
2026-04-30 18:21 35.53383 24.14322 494 ft 110 kts 112°
2026-04-30 18:21 35.53035 24.15392 490 ft 157 kts 112°
2026-04-30 18:21 35.52597 24.16760 730 ft 174 kts 111°
2026-04-30 18:22 35.52153 24.18154 1294 ft 178 kts 111°
2026-04-30 18:22 35.51244 24.21075 2077 ft 198 kts 111°
2026-04-30 18:22 35.50734 24.22727 2344 ft 215 kts 111°
2026-04-30 18:23 35.50187 24.24489 2760 ft 225 kts 111°
2026-04-30 18:23 35.49621 24.26288 3403 ft 227 kts 112°
2026-04-30 18:23 35.49044 24.28103 4038 ft 230 kts 112°
2026-04-30 18:23 35.48459 24.29913 4667 ft 232 kts 113°
2026-04-30 18:24 35.47236 24.33645 5901 ft 239 kts 113°
2026-04-30 18:24 35.46706 24.35589 6496 ft 244 kts 97°
2026-04-30 18:24 35.46859 24.37656 7025 ft 247 kts 67°
2026-04-30 18:25 35.47809 24.39378 7593 ft 245 kts 37°
2026-04-30 18:25 35.50943 24.40318 8789 ft 236 kts 340°
2026-04-30 18:25 35.52368 24.39403 9411 ft 232 kts 314°
2026-04-30 18:26 35.53545 24.35893 10624 ft 231 kts 268°
2026-04-30 18:26 35.53411 24.33918 11213 ft 233 kts 267°
2026-04-30 18:26 35.53275 24.31937 11806 ft 234 kts 268°
2026-04-30 18:27 35.53002 24.27940 13004 ft 236 kts 268°
2026-04-30 18:27 35.52866 24.25921 13602 ft 238 kts 268°
2026-04-30 18:28 35.52593 24.21848 14658 ft 241 kts 268°
2026-04-30 18:28 35.52455 24.19787 15170 ft 243 kts 268°
2026-04-30 18:28 35.52851 24.15654 15848 ft 257 kts 291°
2026-04-30 18:29 35.53525 24.13559 16123 ft 268 kts 291°
2026-04-30 18:29 35.55574 24.07064 17586 ft 277 kts 290°
2026-04-30 18:30 35.56968 24.02603 18548 ft 282 kts 290°
2026-04-30 18:30 35.58392 23.98040 19427 ft 286 kts 290°
2026-04-30 18:31 35.59105 23.95747 19872 ft 288 kts 290°
2026-04-30 18:31 35.60545 23.91123 20730 ft 292 kts 290°
2026-04-30 18:32 35.61995 23.86463 21540 ft 296 kts 290°
2026-04-30 18:32 35.62729 23.84094 21940 ft 298 kts 290°
2026-04-30 18:32 35.64212 23.79311 22727 ft 301 kts 290°
2026-04-30 18:33 35.64959 23.76896 23114 ft 303 kts 290°
2026-04-30 18:33 35.66465 23.72028 23900 ft 305 kts 290°
2026-04-30 18:33 35.67219 23.69588 24260 ft 305 kts 290°
2026-04-30 18:34 35.67974 23.67141 24594 ft 306 kts 290°
2026-04-30 18:34 35.69679 23.62325 25226 ft 311 kts 306°
2026-04-30 18:34 35.71306 23.60554 25511 ft 319 kts 328°
2026-04-30 18:35 35.73417 23.59607 25789 ft 327 kts 340°
2026-04-30 18:35 35.75620 23.58882 26079 ft 329 kts 340°
2026-04-30 18:35 35.77838 23.58156 26386 ft 330 kts 340°
2026-04-30 18:36 35.82310 23.56688 26957 ft 335 kts 340°
2026-04-30 18:36 35.84569 23.55940 27236 ft 337 kts 340°
2026-04-30 18:36 35.89187 23.54669 27681 ft 347 kts 345°
2026-04-30 18:37 35.91593 23.54173 27815 ft 353 kts 345°
2026-04-30 18:37 35.94041 23.53670 27948 ft 360 kts 345°
2026-04-30 18:37 35.96508 23.53168 28083 ft 368 kts 346°
2026-04-30 18:37 35.99055 23.52650 28216 ft 375 kts 346°
2026-04-30 18:38 36.01660 23.52121 28340 ft 383 kts 346°
2026-04-30 18:38 36.04312 23.51581 28493 ft 390 kts 346°
2026-04-30 18:38 36.07016 23.51028 28625 ft 397 kts 346°
2026-04-30 18:38 36.09770 23.50467 28760 ft 404 kts 346°
2026-04-30 18:39 36.12566 23.49899 28898 ft 410 kts 346°
2026-04-30 18:39 36.15404 23.49323 29036 ft 416 kts 346°
2026-04-30 18:39 36.18281 23.48736 29178 ft 422 kts 346°
2026-04-30 18:39 36.21196 23.48137 29319 ft 427 kts 346°
2026-04-30 18:40 36.24141 23.47533 29560 ft 430 kts 346°
2026-04-30 18:40 36.27093 23.46927 29933 ft 431 kts 345°
2026-04-30 18:40 36.30064 23.46316 30220 ft 432 kts 345°
2026-04-30 18:40 36.33034 23.45704 30549 ft 432 kts 345°
2026-04-30 18:41 36.35989 23.45095 30918 ft 430 kts 345°
2026-04-30 18:41 36.38934 23.44488 31311 ft 428 kts 345°
2026-04-30 18:41 36.41871 23.43884 31713 ft 426 kts 345°
2026-04-30 18:41 36.44790 23.43280 31961 ft 425 kts 345°
2026-04-30 18:42 36.47721 23.42671 32022 ft 430 kts 345°
2026-04-30 18:42 36.56728 23.40797 32011 ft 441 kts 345°
2026-04-30 18:45 36.90011 23.33870 32006 ft 442 kts 346°
2026-04-30 18:46 36.95100 23.32812 32012 ft 443 kts 346°
2026-04-30 18:46 37.01137 23.31555 32021 ft 443 kts 346°
2026-04-30 18:47 37.07225 23.30276 32015 ft 443 kts 346°
2026-04-30 18:47 37.13316 23.28997 32013 ft 444 kts 346°
2026-04-30 18:48 37.19402 23.27729 32015 ft 444 kts 346°
2026-04-30 18:48 37.25495 23.26446 32028 ft 444 kts 346°
2026-04-30 18:49 37.31582 23.25160 32025 ft 443 kts 346°
2026-04-30 18:49 37.37662 23.23873 32025 ft 443 kts 346°
2026-04-30 18:50 37.43777 23.22757 32018 ft 447 kts 353°
2026-04-30 18:50 37.50001 23.23759 32022 ft 459 kts 13°
2026-04-30 18:51 37.55828 23.27237 32016 ft 466 kts 24°
2026-04-30 18:51 37.61524 23.31156 32017 ft 467 kts 24°
2026-04-30 18:52 37.67226 23.35067 32028 ft 467 kts 24°
2026-04-30 18:52 37.72942 23.38959 32021 ft 465 kts 21°
2026-04-30 18:53 37.79035 23.41219 32013 ft 452 kts
2026-04-30 18:53 37.85204 23.40883 32011 ft 440 kts 343°
2026-04-30 18:54 37.90979 23.38551 32000 ft 435 kts 336°
2026-04-30 18:54 37.96663 23.36034 31998 ft 436 kts 336°
2026-04-30 18:55 38.02389 23.33504 31997 ft 436 kts 336°
2026-04-30 18:55 38.11020 23.29678 32017 ft 436 kts 336°
2026-04-30 18:56 38.19584 23.25866 32006 ft 437 kts 336°
2026-04-30 18:57 38.28182 23.22033 32001 ft 436 kts 336°
2026-04-30 18:57 38.33913 23.19466 31994 ft 436 kts 336°
2026-04-30 18:58 38.42508 23.15603 31998 ft 436 kts 336°
2026-04-30 18:59 38.51099 23.11744 31997 ft 436 kts 336°
2026-04-30 19:00 38.62530 23.06589 32012 ft 435 kts 336°
2026-04-30 19:01 38.73952 23.01430 32004 ft 435 kts 336°
2026-04-30 19:02 38.82511 22.97543 32017 ft 435 kts 336°
2026-04-30 19:03 38.93915 22.92366 32016 ft 435 kts 336°
2026-04-30 19:04 39.05312 22.87163 32027 ft 434 kts 336°
2026-04-30 19:05 39.16701 22.81932 32011 ft 435 kts 336°
2026-04-30 19:06 39.28074 22.76700 32022 ft 435 kts 336°
2026-04-30 19:06 39.36624 22.72776 32017 ft 434 kts 336°
2026-04-30 19:07 39.45161 22.68828 32004 ft 434 kts 336°
2026-04-30 19:08 39.56539 22.63549 32022 ft 433 kts 336°
2026-04-30 19:09 39.65051 22.59581 32017 ft 433 kts 336°
2026-04-30 19:09 39.70716 22.56943 32010 ft 433 kts 336°
2026-04-30 19:10 39.82039 22.51664 32023 ft 432 kts 336°
2026-04-30 19:11 39.90489 22.47701 32027 ft 432 kts 336°
2026-04-30 19:12 39.96135 22.45052 32040 ft 431 kts 335°
2026-04-30 19:12 40.01768 22.42404 32041 ft 429 kts 335°
2026-04-30 19:13 40.12970 22.37120 32035 ft 428 kts 335°
2026-04-30 19:14 40.18547 22.34475 32034 ft 427 kts 335°
2026-04-30 19:14 40.24125 22.31834 32058 ft 425 kts 334°
2026-04-30 19:15 40.29682 22.29196 32054 ft 424 kts 334°
2026-04-30 19:15 40.37997 22.25233 32049 ft 423 kts 334°
2026-04-30 19:16 40.43532 22.22596 32077 ft 423 kts 334°
2026-04-30 19:17 40.51805 22.18651 32068 ft 421 kts 334°
2026-04-30 19:17 40.60043 22.14703 32070 ft 419 kts 334°
2026-04-30 19:18 40.68260 22.10744 32068 ft 419 kts 334°
2026-04-30 19:19 40.73730 22.08114 32074 ft 418 kts 334°
2026-04-30 19:19 40.81938 22.04157 32089 ft 418 kts 334°
2026-04-30 19:20 40.87406 22.01518 32118 ft 418 kts 333°
2026-04-30 19:21 40.95561 21.97559 32107 ft 418 kts 333°
2026-04-30 19:22 41.06470 21.92256 32149 ft 417 kts 333°
2026-04-30 19:23 41.22887 21.84482 32181 ft 418 kts 333°
2026-04-30 19:24 41.31100 21.80585 32185 ft 418 kts 333°
2026-04-30 19:25 41.44719 21.74108 32217 ft 414 kts 332°
2026-04-30 19:26 41.55562 21.68923 32245 ft 414 kts 332°
2026-04-30 19:27 41.63690 21.65024 32235 ft 413 kts 332°
2026-04-30 19:28 41.71796 21.61132 32234 ft 412 kts 332°
2026-04-30 19:29 41.81686 21.56372 32267 ft 413 kts 331°
2026-04-30 19:30 41.92475 21.51147 32242 ft 412 kts 331°
2026-04-30 19:31 42.03276 21.45897 32257 ft 414 kts 330°
2026-04-30 19:31 42.11412 21.41954 32251 ft 415 kts 330°
2026-04-30 19:32 42.16846 21.39326 32253 ft 417 kts 332°
2026-04-30 19:32 42.22455 21.37117 32280 ft 423 kts 335°
2026-04-30 19:33 42.28163 21.35162 32272 ft 424 kts 336°
2026-04-30 19:33 42.33869 21.33161 32264 ft 423 kts 335°
2026-04-30 19:34 42.39547 21.31062 32267 ft 423 kts 335°
2026-04-30 19:35 42.48074 21.27867 32279 ft 425 kts 335°
2026-04-30 19:35 42.53782 21.25749 32269 ft 425 kts 335°
2026-04-30 19:36 42.59493 21.23627 32266 ft 425 kts 335°
2026-04-30 19:36 42.68026 21.20445 32278 ft 427 kts 336°
2026-04-30 19:37 42.73753 21.18308 32267 ft 427 kts 336°
2026-04-30 19:37 42.79482 21.16170 32264 ft 427 kts 336°
2026-04-30 19:38 42.85252 21.14008 32263 ft 427 kts 336°
2026-04-30 19:38 42.90944 21.11864 32275 ft 427 kts 336°
2026-04-30 19:39 42.96674 21.09705 32271 ft 427 kts 336°
2026-04-30 19:39 43.02401 21.07540 32288 ft 427 kts 336°
2026-04-30 19:40 43.08132 21.05368 32270 ft 427 kts 336°
2026-04-30 19:40 43.13885 21.03241 32260 ft 429 kts 339°
2026-04-30 19:41 43.19745 21.01486 32258 ft 432 kts 341°
2026-04-30 19:41 43.25654 20.99875 32281 ft 433 kts 341°
2026-04-30 19:42 43.31522 20.98209 32292 ft 433 kts 341°
2026-04-30 19:42 43.37416 20.96452 32287 ft 433 kts 341°
2026-04-30 19:43 43.43297 20.94682 32309 ft 432 kts 341°
2026-04-30 19:44 43.52115 20.92046 32291 ft 432 kts 341°
2026-04-30 19:44 43.57996 20.90294 32277 ft 432 kts 341°
2026-04-30 19:45 43.63877 20.88536 32299 ft 432 kts 341°
2026-04-30 19:45 43.69757 20.86767 32296 ft 432 kts 342°
2026-04-30 19:46 43.75635 20.84997 32285 ft 432 kts 342°
2026-04-30 19:46 43.81501 20.83235 32282 ft 431 kts 342°
2026-04-30 19:47 43.87367 20.81471 32294 ft 431 kts 342°
2026-04-30 19:47 43.93232 20.79701 32284 ft 431 kts 342°
2026-04-30 19:48 43.99061 20.77937 32282 ft 431 kts 342°
2026-04-30 19:48 44.04919 20.76163 32299 ft 431 kts 343°
2026-04-30 19:49 44.10775 20.74379 32292 ft 430 kts 344°
2026-04-30 19:49 44.19543 20.71688 32289 ft 429 kts 344°
2026-04-30 19:50 44.25379 20.69905 32284 ft 429 kts 344°
2026-04-30 19:50 44.31212 20.68126 32294 ft 429 kts 344°
2026-04-30 19:51 44.37040 20.66347 32285 ft 429 kts 344°
2026-04-30 19:51 44.42866 20.64558 32286 ft 428 kts 345°
2026-04-30 19:52 44.48686 20.62766 32306 ft 428 kts 345°
2026-04-30 19:52 44.54490 20.60972 32302 ft 427 kts 345°
2026-04-30 19:53 44.60281 20.59171 32303 ft 426 kts 345°
2026-04-30 19:53 44.66027 20.57379 32309 ft 426 kts 345°
2026-04-30 19:54 44.71808 20.55591 32323 ft 425 kts 346°
2026-04-30 19:54 44.77589 20.53793 32319 ft 425 kts 346°
2026-04-30 19:55 44.83396 20.51979 32306 ft 425 kts 346°
2026-04-30 19:55 44.89123 20.50189 32307 ft 424 kts 346°
2026-04-30 19:56 44.94886 20.48377 32307 ft 424 kts 346°
2026-04-30 19:56 45.00649 20.46562 32294 ft 424 kts 346°
2026-04-30 19:57 45.06409 20.44760 32299 ft 424 kts 346°
2026-04-30 19:57 45.12168 20.42956 32312 ft 424 kts 346°
2026-04-30 19:58 45.17928 20.41136 32298 ft 424 kts 346°
2026-04-30 19:58 45.23694 20.39309 32294 ft 424 kts 346°
2026-04-30 19:59 45.29453 20.37488 32293 ft 424 kts 346°
2026-04-30 20:00 45.38095 20.34712 32308 ft 424 kts 346°
2026-04-30 20:00 45.43859 20.32877 32308 ft 425 kts 346°
2026-04-30 20:01 45.52510 20.30119 32307 ft 425 kts 346°
2026-04-30 20:01 45.58276 20.28271 32300 ft 425 kts 347°
2026-04-30 20:02 45.66928 20.25498 32305 ft 425 kts 347°
2026-04-30 20:03 45.75571 20.22705 32309 ft 425 kts 347°
2026-04-30 20:03 45.81342 20.20834 32320 ft 425 kts 347°
2026-04-30 20:04 45.87069 20.18981 32321 ft 424 kts 347°
2026-04-30 20:05 45.95750 20.16167 32311 ft 424 kts 347°
2026-04-30 20:05 46.04353 20.13360 32320 ft 424 kts 347°
2026-04-30 20:06 46.10105 20.11479 32324 ft 424 kts 347°
2026-04-30 20:06 46.15851 20.09595 32321 ft 424 kts 346°
2026-04-30 20:07 46.21470 20.07003 32314 ft 424 kts 342°
2026-04-30 20:08 46.29864 20.02973 32319 ft 424 kts 342°
2026-04-30 20:08 46.35456 20.00284 32313 ft 423 kts 342°
2026-04-30 20:09 46.41050 19.97593 32318 ft 423 kts 342°
2026-04-30 20:09 46.49433 19.93545 32327 ft 423 kts 342°
2026-04-30 20:10 46.57825 19.89483 32326 ft 423 kts 342°
2026-04-30 20:11 46.66201 19.85396 32330 ft 423 kts 342°
2026-04-30 20:11 46.71794 19.82667 32325 ft 423 kts 342°
2026-04-30 20:12 46.80167 19.78580 32325 ft 424 kts 342°
2026-04-30 20:13 46.85717 19.75858 32333 ft 424 kts 342°
2026-04-30 20:13 46.91305 19.73115 32334 ft 424 kts 342°
2026-04-30 20:14 46.96892 19.70366 32341 ft 424 kts 342°
2026-04-30 20:14 47.01578 19.68055 32331 ft 424 kts 342°
2026-04-30 20:15 47.07163 19.65289 32313 ft 424 kts 342°
2026-04-30 20:15 47.12757 19.62507 32322 ft 424 kts 342°
2026-04-30 20:16 47.18347 19.59729 32330 ft 424 kts 342°
2026-04-30 20:16 47.23945 19.56961 32331 ft 424 kts 342°
2026-04-30 20:17 47.29533 19.54175 32335 ft 424 kts 342°
2026-04-30 20:17 47.35125 19.51367 32331 ft 424 kts 342°
2026-04-30 20:18 47.40677 19.48582 32334 ft 424 kts 342°
2026-04-30 20:18 47.46302 19.45758 32332 ft 424 kts 342°
2026-04-30 20:19 47.51857 19.42969 32336 ft 424 kts 342°
2026-04-30 20:19 47.57423 19.40167 32338 ft 424 kts 342°
2026-04-30 20:20 47.63009 19.37340 32343 ft 424 kts 342°
2026-04-30 20:20 47.68595 19.34510 32345 ft 424 kts 343°
2026-04-30 20:21 47.74178 19.31684 32350 ft 424 kts 343°
2026-04-30 20:21 47.79759 19.28844 32336 ft 424 kts 343°
2026-04-30 20:22 47.85331 19.26004 32343 ft 423 kts 343°
2026-04-30 20:22 47.90900 19.23146 32350 ft 423 kts 343°
2026-04-30 20:23 47.96468 19.20276 32348 ft 423 kts 343°
2026-04-30 20:23 48.02036 19.17416 32343 ft 423 kts 343°
2026-04-30 20:24 48.07605 19.14559 32344 ft 423 kts 343°
2026-04-30 20:24 48.13167 19.11690 32338 ft 423 kts 343°
2026-04-30 20:25 48.21504 19.07385 32338 ft 422 kts 343°
2026-04-30 20:26 48.29783 19.03069 32341 ft 421 kts 343°
2026-04-30 20:26 48.38095 18.98737 32340 ft 421 kts 343°
2026-04-30 20:27 48.49157 18.92947 32346 ft 421 kts 344°
2026-04-30 20:28 48.60201 18.87157 32341 ft 419 kts 344°
2026-04-30 20:30 48.73980 18.79876 32350 ft 419 kts 344°
2026-04-30 20:31 48.90487 18.71086 32340 ft 419 kts 345°
2026-04-30 20:32 49.04165 18.63773 32374 ft 417 kts 345°
2026-04-30 20:33 49.12370 18.59366 32382 ft 417 kts 345°
2026-04-30 20:34 49.20569 18.54942 32394 ft 416 kts 345°
2026-04-30 20:35 49.28744 18.50510 32360 ft 415 kts 347°
2026-04-30 20:35 49.36880 18.46092 32391 ft 413 kts 347°
2026-04-30 20:36 49.42289 18.43084 32398 ft 413 kts 346°
2026-04-30 20:37 49.50300 18.38227 32414 ft 412 kts 345°
2026-04-30 20:37 49.55628 18.34988 32416 ft 412 kts 345°
2026-04-30 20:38 49.60918 18.31805 32420 ft 411 kts 345°
2026-04-30 20:38 49.66261 18.28604 32385 ft 411 kts 346°
2026-04-30 20:39 49.74233 18.23790 32419 ft 409 kts 346°
2026-04-30 20:40 49.82180 18.18959 32420 ft 409 kts 346°
2026-04-30 20:40 49.87467 18.15749 32418 ft 408 kts 346°
2026-04-30 20:41 49.95392 18.10910 32408 ft 407 kts 347°
2026-04-30 20:41 50.00654 18.07682 32411 ft 407 kts 347°